This is the latest recevied weather packets stored in our database for station/object KC9DRE. If no packets are shown the sender has not sent any weather packets the latest 10 day(s).
| Time | Temp. | Humidity | Pressure | Rain* | Wind** | Luminosity | Snow |
|---|---|---|---|---|---|---|---|
| 1788536889 | 36.67° C | 52% | 1017.4 hPa | 0 mm | - | 655 W/m² | - |
| 1788536584 | 35.56° C | 54% | 1017.5 hPa | 0 mm | - | 644 W/m² | - |
| 1788536279 | 35.56° C | 54% | 1017.6 hPa | 0 mm | - | 634 W/m² | - |
| 1788535974 | 35° C | 56% | 1017.6 hPa | 0 mm | - | 619 W/m² | - |
| 1788535671 | 35.56° C | 54% | 1017.5 hPa | 0 mm | - | 609 W/m² | - |
| 1788534759 | 35° C | 57% | 1017.4 hPa | 0 mm | - | 570 W/m² | - |
| 1788534456 | 35° C | 55% | 1017.6 hPa | 0 mm | - | 556 W/m² | - |
| 1788534150 | 35° C | 58% | 1017.4 hPa | 0 mm | - | 542 W/m² | - |
| 1788533849 | 35° C | 56% | 1017.5 hPa | 0 mm | - | 527 W/m² | - |
| 1788533545 | 35° C | 57% | 1017.5 hPa | 0 mm | - | 512 W/m² | - |
| 1788532631 | 34.44° C | 59% | 1017.3 hPa | 0 mm | - | 473 W/m² | - |
| 1788532328 | 33.89° C | 57% | 1017.4 hPa | 0 mm | - | 456 W/m² | - |
| 1788532024 | 34.44° C | 57% | 1017.4 hPa | 0 mm | - | 440 W/m² | - |
| 1788531719 | 34.44° C | 59% | 1017.4 hPa | 0 mm | - | 425 W/m² | - |
| 1788531414 | 33.89° C | 61% | 1017.2 hPa | 0 mm | - | 411 W/m² | - |
| 1788531109 | 33.33° C | 63% | 1017.3 hPa | 0 mm | - | 396 W/m² | - |
| 1788530805 | 32.78° C | 64% | 1017.3 hPa | 0 mm | - | 382 W/m² | - |
| 1788530505 | 32.78° C | 64% | 1017.2 hPa | 0 mm | - | 368 W/m² | - |
| 1788530204 | 32.78° C | 63% | 1017.3 hPa | 0 mm | - | 350 W/m² | - |
| 1788529900 | 32.22° C | 67% | 1016.9 hPa | 0 mm | - | 332 W/m² | - |
| 1788529596 | 31.67° C | 71% | 1017 hPa | 0 mm | - | 318 W/m² | - |
| 1788528990 | 30.56° C | 72% | 1017.1 hPa | 0 mm | - | 110 W/m² | - |
| 1788528686 | 30° C | 73% | 1017.3 hPa | 0 mm | - | 221 W/m² | - |
| 1788528381 | 30° C | 76% | 1017.4 hPa | 0 mm | - | 261 W/m² | - |
| 1788528075 | 29.44° C | 78% | 1017.1 hPa | 0 mm | - | 227 W/m² | - |
* Rain latest hour (hover to see other rain measurements)
** Current wind speed in m/s (hover to see current wind gust speed)